Weather History for KSNS - October, 2013

Change the Weather History Date:

Friday, October 4, 2013

  Actual Average Record
Temperature  
Mean Temperature 65 °F 63 °F  
Max Temperature 86 °F 74 °F 100 °F (1987)
Min Temperature 44 °F 52 °F 37 °F (1931)
Degree Days  
Heating Degree Days 0 3  
Month to date heating degree days 13 12  
Since 1 July heating degree days 136 207  
Cooling Degree Days 0 1  
Month to date cooling degree days 0 4  
Year to date cooling degree days 138 109  
Growing Degree Days 14 (Base 50)    
Moisture  
Dew Point 35 °F    
Average Humidity 45    
Maximum Humidity 76    
Minimum Humidity 13    
Precipitation  
Precipitation 0.00 in 0.02 in 0.32 in (1994)
Month to date precipitation 0.00 0.05  
Year to date precipitation 2.44 8.97  
Since 1 July precipitation 0.11 0.25  
Sea Level Pressure  
Sea Level Pressure 30.04 in    
Wind  
Wind Speed 4 mph (ESE)    
Max Wind Speed 13 mph    
Max Gust Speed 16 mph    
Visibility 10 miles    
Events      
T = Trace of Precipitation, MM = Missing Value Source: NWS Daily Summary

Daily Weather History Graph

Daily Weather History Graph

Search for Another Location

Airport or City:

Trip Planner

Search our weather history database for the weather conditions in past years. The results will help you decide how hot, cold, wet, or windy it might be!

Date:

Astronomy

Oct. 04, 2013 Rise Set
Actual Time 7:04 AM PDT 6:44 PM PDT
Civil Twilight 6:38 AM PDT 7:10 PM PDT
Nautical Twilight 6:08 AM PDT 7:40 PM PDT
Astronomical Twilight 5:38 AM PDT 8:10 PM PDT
Moon 6:45 AM PDT 6:31 PM PDT
Length of Visible Light 12h 32m
Length of Day
11h 40m
Waning Crescent, 0% of the Moon is Illuminated
Oct 4
Waning Crescent
Oct 4
New
Oct 11
First Quarter
Oct 18
Full
Oct 26
Last Quarter

Hourly Weather History & Observations

Time (PDT) Temp. Windchill Dew Point Humidity Pressure Visibility Wind Dir Wind Speed Gust Speed Precip Events Conditions
12:53 AM 50.0 °F - 39.9 °F 68% 29.99 in 9.0 mi ESE 3.5 mph - N/A   Clear
1:53 AM 50.0 °F - 39.0 °F 66% 30.00 in 10.0 mi Calm Calm - N/A   Clear
2:53 AM 46.9 °F - 37.0 °F 68% 30.00 in 10.0 mi East 4.6 mph - N/A   Clear
3:53 AM 46.0 °F - 37.9 °F 73% 30.00 in 10.0 mi Calm Calm - N/A   Clear
4:53 AM 44.1 °F 42.5 °F 37.0 °F 76% 30.00 in 10.0 mi East 3.5 mph - N/A   Clear
5:53 AM 45.0 °F 42.6 °F 37.0 °F 74% 30.02 in 10.0 mi ESE 4.6 mph - N/A   Clear
6:53 AM 44.1 °F 42.5 °F 36.0 °F 73% 30.03 in 10.0 mi ESE 3.5 mph - N/A   Clear
7:53 AM 46.9 °F - 37.0 °F 68% 30.05 in 10.0 mi SE 4.6 mph - N/A   Clear
8:53 AM 53.1 °F - 39.0 °F 59% 30.06 in 10.0 mi ESE 4.6 mph - N/A   Clear
9:53 AM 59.0 °F - 39.0 °F 48% 30.07 in 10.0 mi SE 5.8 mph - N/A   Clear
10:53 AM 66.0 °F - 35.1 °F 32% 30.07 in 10.0 mi Calm Calm - N/A   Clear
11:53 AM 72.0 °F - 30.0 °F 21% 30.06 in 10.0 mi Calm Calm - N/A   Clear
12:53 PM 77.0 °F - 30.0 °F 18% 30.04 in 10.0 mi East 4.6 mph - N/A   Clear
1:53 PM 82.0 °F - 30.0 °F 15% 30.02 in 10.0 mi ESE 8.1 mph - N/A   Clear
2:53 PM 84.0 °F - 28.9 °F 14% 30.01 in 10.0 mi Calm Calm - N/A   Clear
3:53 PM 84.0 °F - 28.0 °F 13% 30.01 in 10.0 mi NE 4.6 mph - N/A   Clear
4:53 PM 84.9 °F - 30.9 °F 14% 30.01 in 10.0 mi NNW 9.2 mph - N/A   Clear
5:53 PM 75.9 °F - 36.0 °F 23% 30.02 in 10.0 mi West 10.4 mph - N/A   Clear
6:53 PM 72.0 °F - 36.0 °F 27% 30.04 in 10.0 mi West 6.9 mph - N/A   Clear
7:53 PM 69.1 °F - 35.1 °F 29% 30.06 in 10.0 mi SW 6.9 mph - N/A   Clear
8:53 PM 66.9 °F - 33.1 °F 28% 30.08 in 9.0 mi WSW 3.5 mph - N/A   Clear
9:53 PM 64.9 °F - 35.1 °F 33% 30.09 in 10.0 mi NW 3.5 mph - N/A   Clear
10:53 PM 57.9 °F - 37.9 °F 47% 30.11 in 9.0 mi East 3.5 mph - N/A   Clear
11:53 PM 55.9 °F - 39.0 °F 53% 30.12 in 10.0 mi ESE 3.5 mph - N/A   Clear